Weather History for Middletown, OH

Change the Weather History Date:

Tuesday, September 25, 2012

  Actual Average (KDAY) Record (KDAY)
Temperature  
Mean Temperature 56 °F 62 °F  
Max Temperature 64 °F 72 °F 94 °F (1908)
Min Temperature 47 °F 51 °F 35 °F (1903)
Degree Days  
Heating Degree Days 10 5  
Month to date heating degree days 58  
Since 1 July heating degree days 60  
Cooling Degree Days 0 2  
Month to date cooling degree days 92  
Year to date cooling degree days 874  
Growing Degree Days 6 (Base 50)    
Moisture  
Dew Point 55 °F    
Average Humidity 93    
Maximum Humidity 100    
Minimum Humidity 68    
Precipitation  
Precipitation 0.00 in 0.10 in 2.19 in (1993)
Month to date precipitation 2.77  
Year to date precipitation 31.08  
Snow  
Snow 0.00 in 0.00 in - ()
Month to date snowfall 0.0  
Since 1 July snowfall 0.0  
Since 1 September snowfall 0.0  
Snow Depth -    
Sea Level Pressure  
Sea Level Pressure 30.03 in    
Wind  
Wind Speed 4 mph (SSW)    
Max Wind Speed 14 mph    
Max Gust Speed 20 mph    
Visibility 10 miles    
Events Rain    
T = Trace of Precipitation, MM = Missing Value Source: NWS Daily Summary

Daily Weather History Graph

Daily Weather History Graph

Search for Another Location

Airport:

Trip Planner

Search our weather history database for the weather conditions in past years. The results will help you decide how hot, cold, wet, or windy it might be!

Date:

Astronomy

Sep. 25, 2012 Rise Set
Actual Time 7:28 AM EDT 7:28 PM EDT
Civil Twilight 7:01 AM EDT 7:55 PM EDT
Nautical Twilight 6:30 AM EDT 8:26 PM EDT
Astronomical Twilight 5:58 AM EDT 8:58 PM EDT
Moon 4:52 PM EDT (9/25) 2:50 AM EDT (9/25)
Length of Visible Light 12h 54m
Length of Day
12h 00m
Waxing Gibbous, 80% of the Moon is Illuminated
Sep 25
Waxing Gibbous
Sep 29
Full
Oct 8
Last Quarter
Oct 15
New
Oct 21
First Quarter

Hourly Weather History & Observations

Time (EDT) Temp. Dew Point Humidity Pressure Visibility Wind Dir Wind Speed Gust Speed Precip Events Conditions
12:55 AM 47.7 °F 47.7 °F 100% 30.08 in 10.0 mi Calm Calm - N/A   Clear
1:15 AM 47.7 °F 47.7 °F 100% 30.08 in 10.0 mi Calm Calm - N/A   Clear
1:35 AM 47.7 °F 47.5 °F 99% 30.08 in 10.0 mi Calm Calm - N/A   Clear
1:55 AM 47.7 °F 47.3 °F 99% 30.07 in 10.0 mi West 3.5 mph - N/A   Clear
2:15 AM 47.7 °F 47.7 °F 100% 30.08 in 10.0 mi Calm Calm - N/A   Clear
2:35 AM 47.7 °F 46.9 °F 97% 30.08 in 10.0 mi Calm Calm - N/A   Clear
2:55 AM 47.7 °F 47.7 °F 100% 30.08 in 10.0 mi Calm Calm - N/A   Clear
3:15 AM 47.7 °F 47.7 °F 100% 30.08 in 10.0 mi Calm Calm - N/A   Clear
3:35 AM 47.7 °F 47.7 °F 100% 30.07 in 10.0 mi Calm Calm - N/A   Clear
3:55 AM 47.7 °F 47.7 °F 100% 30.07 in 10.0 mi Calm Calm - N/A   Scattered Clouds
4:15 AM 47.7 °F 47.7 °F 100% 30.06 in 10.0 mi Calm Calm - N/A   Mostly Cloudy
4:35 AM 47.7 °F 47.7 °F 100% 30.05 in 10.0 mi Calm Calm - N/A   Mostly Cloudy
4:55 AM 47.8 °F 47.8 °F 100% 30.05 in 10.0 mi WSW 3.5 mph - N/A   Overcast
5:15 AM 50.2 °F 50.0 °F 99% 30.06 in 10.0 mi Calm Calm - N/A   Overcast
5:35 AM 52.7 °F 51.6 °F 96% 30.04 in 10.0 mi Calm Calm - N/A   Overcast
5:55 AM 52.7 °F 50.7 °F 93% 30.04 in 10.0 mi Calm Calm - N/A   Overcast
6:15 AM 52.7 °F 49.1 °F 88% 30.04 in 10.0 mi Calm Calm - N/A   Mostly Cloudy
6:35 AM 52.7 °F 50.0 °F 91% 30.04 in 10.0 mi Calm Calm - N/A   Overcast
6:55 AM 52.7 °F 51.6 °F 96% 30.03 in 10.0 mi Calm Calm - N/A   Overcast
7:15 AM 52.7 °F 48.4 °F 85% 30.03 in 10.0 mi South 3.5 mph - N/A   Overcast
7:35 AM 52.7 °F 51.1 °F 94% 30.04 in 10.0 mi Calm Calm - N/A   Overcast
7:55 AM 52.7 °F 50.5 °F 92% 30.04 in 10.0 mi Calm Calm - N/A   Overcast
8:15 AM 55.4 °F 49.3 °F 80% 30.06 in 10.0 mi SSW 4.6 mph - N/A   Overcast
8:35 AM 55.4 °F 48.9 °F 79% 30.06 in 10.0 mi SSW 4.6 mph - N/A   Overcast
8:55 AM 55.6 °F 48.2 °F 76% 30.05 in 10.0 mi SSW 6.9 mph - N/A   Scattered Clouds
9:15 AM 58.1 °F 49.6 °F 73% 30.05 in 10.0 mi South 4.6 mph - N/A   Mostly Cloudy
9:35 AM - - N/A% - - North - - N/A   Unknown
9:55 AM - - N/A% - - North - - N/A   Unknown
10:15 AM 60.4 °F 49.8 °F 68% 30.04 in - SSW 10.4 mph - N/A   Unknown
10:35 AM 59.0 °F 49.5 °F 71% 30.05 in - SSW 10.4 mph - N/A   Scattered Clouds
10:55 AM 59.0 °F 49.5 °F 71% 30.05 in - SSW 10.4 mph - N/A   Scattered Clouds
11:15 AM 60.1 °F 50.4 °F 70% 30.04 in - SSW 9.2 mph - N/A   Clear
11:35 AM 60.1 °F 50.9 °F 72% 30.05 in - South 8.1 mph - N/A   Clear
11:55 AM 57.7 °F 52.9 °F 84% 30.07 in - SW 13.8 mph - N/A   Mostly Cloudy
12:15 PM 57.7 °F 53.4 °F 85% 30.07 in - SSW 10.4 mph - N/A   Overcast
12:35 PM 59.0 °F 54.9 °F 86% 30.06 in - SSW 9.2 mph - N/A   Overcast
12:55 PM - - N/A% - - North - - N/A   Unknown
1:15 PM 59.0 °F 55.4 °F 88% 30.05 in - South 8.1 mph - N/A   Unknown
1:35 PM 59.0 °F 56.1 °F 90% 30.03 in 10.0 mi SSW 8.1 mph - N/A   Overcast
1:55 PM 59.0 °F 56.5 °F 91% 30.03 in 10.0 mi SSW 11.5 mph - N/A   Overcast
2:15 PM 59.0 °F 56.8 °F 93% 30.02 in 10.0 mi South 9.2 mph - N/A   Overcast
3:15 PM 60.1 °F 59.0 °F 96% 30.01 in 10.0 mi SSW 12.7 mph 19.6 mph N/A   Overcast
3:35 PM 60.1 °F 59.0 °F 96% 30.00 in 10.0 mi SSW 10.4 mph - N/A   Overcast
3:55 PM 60.4 °F 59.7 °F 97% 30.00 in 10.0 mi SSW 11.5 mph - N/A   Overcast
4:15 PM 61.3 °F 59.9 °F 95% 29.99 in 10.0 mi South 12.7 mph - N/A   Overcast
4:35 PM 61.3 °F 60.3 °F 96% 29.99 in 10.0 mi SSW 9.2 mph - N/A   Overcast
4:55 PM 62.6 °F 61.2 °F 95% 29.99 in 10.0 mi SSW 9.2 mph - N/A   Overcast
5:15 PM 62.6 °F 61.2 °F 95% 29.99 in 10.0 mi SSW 11.5 mph - N/A Rain Light Rain
5:35 PM 62.6 °F 61.3 °F 96% 29.99 in 10.0 mi SSW 10.4 mph - N/A   Light Drizzle
5:55 PM 62.6 °F 61.2 °F 95% 29.99 in 10.0 mi SSW 10.4 mph - N/A   Overcast
6:15 PM 64.2 °F 63.1 °F 96% 30.00 in 10.0 mi SSW 9.2 mph - N/A Rain Light Rain
6:35 PM 62.6 °F 61.7 °F 97% 30.00 in 10.0 mi SSW 6.9 mph - N/A   Mostly Cloudy
6:55 PM 62.6 °F 62.4 °F 99% 30.00 in 10.0 mi SSW 10.4 mph 16.1 mph N/A Rain Light Rain
7:15 PM 62.6 °F 62.6 °F 100% 29.98 in 10.0 mi South 10.4 mph - N/A Rain Light Rain
7:35 PM 62.6 °F 62.6 °F 100% 29.99 in 10.0 mi SSW 4.6 mph - N/A   Drizzle
7:55 PM 62.6 °F 62.6 °F 100% 29.98 in 10.0 mi SW 5.8 mph - N/A   Mostly Cloudy
8:15 PM 62.6 °F 62.6 °F 100% 29.97 in 10.0 mi SSW 4.6 mph - N/A   Scattered Clouds
8:55 PM 62.6 °F 62.2 °F 99% 29.97 in 10.0 mi SSW 9.2 mph - N/A   Mostly Cloudy
9:15 PM 62.6 °F 62.6 °F 100% 29.98 in 10.0 mi SSW 10.4 mph - N/A   Scattered Clouds
9:35 PM 62.6 °F 62.6 °F 100% 29.99 in 10.0 mi SSW 5.8 mph - N/A   Drizzle
9:55 PM 62.6 °F 62.6 °F 100% 29.98 in 10.0 mi South 4.6 mph - N/A   Scattered Clouds
10:15 PM 62.1 °F 62.1 °F 100% 29.98 in 10.0 mi SSW 4.6 mph - N/A   Mostly Cloudy
10:35 PM 61.3 °F 61.3 °F 100% 29.98 in 10.0 mi South 3.5 mph - N/A   Scattered Clouds
10:55 PM 62.6 °F 62.6 °F 100% 29.98 in 10.0 mi SSW 5.8 mph - N/A   Mostly Cloudy
11:15 PM 62.6 °F 62.2 °F 99% 29.98 in 10.0 mi SSW 4.6 mph - N/A   Mostly Cloudy
11:35 PM 61.7 °F 61.3 °F 99% 29.98 in 10.0 mi SSW 3.5 mph - N/A   Scattered Clouds
11:55 PM 62.6 °F 61.7 °F 97% 29.98 in 10.0 mi South 3.5 mph - N/A   Clear